Content
SEND FEEDBACK

Daily
Averages
Monthly
Summary
United States of America

MANGILAO, GUAM


Home > North America > United States > Guam
Elevation: 60 feet     Latitude: 13 27N     Longitude: 144 49E

WEATHER
 
SELECT A DAY
Number of Records: 350,245;   Date Range: 1/1/95 - 9/30/14
 
SHARE

PRINT THIS DATA

[ ← Previous Day ]
WEATHER ALMANAC - JANUARY 6, 2013
[ Next Day → ]
[ °C ]   °F
Weather ElementAverageHighLow
Temperature76.1 °F82.9 °F (11:55 am)71.6 °F (9:24 am)
Dewpoint73.3 °F75.2 °F (12:18 am)71.6 °F (7:48 am)
Humidity91.2 %100 % (3:53 am)70 % (4:03 pm)
Barometer29.80 in29.88 in (8:51 am)29.76 in (3:26 pm)
Wind Speed16 mph25.3 mph (7:32 am)
Wind Gust40.3 mph (6:55 am)
Weather ElementAverage
Visibility5.7 mi
Wind DirectionENE (79.9 °)

Weather ElementTotal
Precipitation2.16 in
Cooling Degree Days12.3 (Base 65)
Growing Degree Days27.3 (Base 50)
Averaged from 170 records on January 6, 2013
WEATHER CONDITIONS BREAKOUT
WIND DIRECTION BREAKOUT
WEATHER BY HOUR - JANUARY 6, 2013
[ °C ]   °F
Local TimeTemperatureDewpointHumidityBarometerVisibilityWind DirectionWind SpeedGust SpeedPrecipitationEventsConditions
12:18 AM78.8 °F75.2 °F89 %29.82 in10.0 miENE (60°)18.4 mph26.5 mphLight Drizzle
12:23 AM77.0 °F75.2 °F94 %29.81 in8.0 miNE (50°)19.6 mphRainLight Rain
12:24 AM77.0 °F75.2 °F94 %29.81 in7.0 miNE (50°)18.4 mphRainLight Rain
12:33 AM77.0 °F75.2 °F94 %29.81 in9.0 miENE (70°)17.3 mphRainLight Rain
12:34 AM77.0 °F75.2 °F94 %29.81 in9.0 miENE (70°)16.1 mphOvercast
12:35 AM77.0 °F75.2 °F94 %29.81 in10.0 miENE (70°)17.3 mphOvercast
12:37 AM77.0 °F75.2 °F94 %29.81 in10.0 miENE (70°)21.9 mphRainLight Rain
12:44 AM75.2 °F73.4 °F94 %29.81 in8.0 miENE (70°)21.9 mphRainLight Rain
12:46 AM75.2 °F73.4 °F94 %29.81 in7.0 miEast (80°)18.4 mphLight Drizzle
12:55 AM75.4 °F72.9 °F92 %29.81 in9.0 miEast (80°)17.3 mph0.01 inLight Drizzle
1:41 AM75.2 °F73.4 °F94 %29.79 in4.0 miEast (100°)8.1 mphRainRain
1:43 AM75.2 °F73.4 °F94 %29.79 in2.5 miESE (110°)15.0 mph19.6 mphRainHeavy Rain
1:44 AM75.2 °F73.4 °F94 %29.79 in1.8 miESE (110°)15.0 mph19.6 mphRainHeavy Rain
1:46 AM75.2 °F73.4 °F94 %29.79 in1.2 miESE (120°)11.5 mph19.6 mphRainHeavy Rain
1:47 AM75.2 °F73.4 °F94 %29.79 in1.0 miESE (120°)11.5 mph19.6 mphRainHeavy Rain
1:48 AM75.2 °F73.4 °F94 %29.79 in1.0 miESE (120°)11.5 mph19.6 mphRainHeavy Rain
1:50 AM75.2 °F73.4 °F94 %29.79 in1.0 miESE (120°)16.1 mph19.6 mphRainHeavy Rain
1:51 AM75.2 °F73.4 °F94 %29.79 in1.0 miESE (110°)13.8 mph19.6 mphRainHeavy Rain
1:55 AM75.2 °F73.6 °F95 %29.79 in1.2 miEast (90°)12.7 mph0.35 inRainHeavy Rain
1:57 AM75.2 °F73.4 °F94 %29.79 in1.5 miEast (90°)12.7 mphRainHeavy Rain
2:03 AM75.2 °F73.4 °F94 %29.79 in2.0 miEast (80°)9.2 mphRainRain
2:04 AM75.2 °F73.4 °F94 %29.78 in2.5 miEast (80°)9.2 mphRainLight Rain
2:06 AM75.2 °F73.4 °F94 %29.78 in3.0 miEast (80°)11.5 mphRainLight Rain
2:07 AM75.2 °F73.4 °F94 %29.78 in4.0 miEast (80°)11.5 mphRainLight Rain
2:31 AM75.2 °F73.4 °F94 %29.78 in3.0 miNE (50°)8.1 mphRainHeavy Rain
2:34 AM75.2 °F73.4 °F94 %29.78 in2.5 miNNE (30°)6.9 mphRainHeavy Rain
2:35 AM75.2 °F73.4 °F94 %29.78 in2.0 miNNE (30°)6.9 mphRainHeavy Rain
2:37 AM75.2 °F73.4 °F94 %29.78 in1.8 miNorth (10°)8.1 mphRainHeavy Rain
2:38 AM75.2 °F73.4 °F94 %29.78 in1.8 miNorth (10°)8.1 mphRainHeavy Rain
2:42 AM75.2 °F73.4 °F94 %29.78 in1.2 miNNE (30°)8.1 mphRainHeavy Rain
2:43 AM75.2 °F73.4 °F94 %29.78 in1.2 miNE (40°)8.1 mphRainHeavy Rain
2:44 AM75.2 °F73.4 °F94 %29.78 in1.2 miNE (40°)8.1 mphRainHeavy Rain
2:47 AM75.2 °F73.4 °F94 %29.78 in1.2 miNE (50°)9.2 mphRainHeavy Rain
2:49 AM75.2 °F73.4 °F94 %29.78 in1.5 miENE (60°)10.4 mphRainLight Rain
2:52 AM75.2 °F73.4 °F94 %29.78 in2.0 miEast (80°)13.8 mph18.4 mphRainLight Rain
2:53 AM75.2 °F73.4 °F94 %29.78 in2.5 miEast (80°)13.8 mph18.4 mphRainLight Rain
2:54 AM75.2 °F73.4 °F94 %29.78 in3.0 miEast (90°)11.5 mph18.4 mphRainLight Rain
2:55 AM74.8 °F73.6 °F96 %29.78 in3.0 miESE (110°)9.2 mph18.4 mph0.46 inRainLight Rain
2:58 AM75.2 °F73.4 °F94 %29.78 in4.0 miEast (100°)9.2 mph18.4 mphRainLight Rain
3:00 AM75.2 °F73.4 °F94 %29.78 in4.0 miEast (100°)6.9 mph18.4 mphRainLight Rain
3:08 AM75.2 °F73.4 °F94 %29.78 in6.0 miESE (110°)8.1 mphRainLight Rain
3:11 AM75.2 °F73.4 °F94 %29.78 in8.0 miEast (100°)8.1 mphRainLight Rain
3:12 AM75.2 °F73.4 °F94 %29.78 in9.0 miEast (100°)9.2 mphOvercast
3:22 AM75.2 °F73.4 °F94 %29.78 in10.0 miEast (80°)12.7 mphOvercast
3:23 AM75.2 °F73.4 °F94 %29.78 in10.0 miEast (80°)16.1 mph23.0 mphOvercast
3:29 AM75.2 °F73.4 °F94 %29.77 in10.0 miEast (80°)20.7 mph26.5 mphOvercast
3:34 AM75.2 °F73.4 °F94 %29.77 in8.0 miEast (90°)20.7 mph26.5 mphOvercast
3:35 AM75.2 °F73.4 °F94 %29.77 in8.0 miEast (100°)19.6 mph26.5 mphLight Drizzle
3:37 AM75.2 °F73.4 °F94 %29.77 in7.0 miEast (100°)19.6 mph26.5 mphLight Drizzle
3:43 AM75.2 °F73.4 °F94 %29.77 in5.0 miESE (110°)18.4 mph26.5 mphLight Drizzle
3:44 AM75.2 °F73.4 °F94 %29.77 in5.0 miESE (110°)18.4 mph26.5 mphLight Drizzle
3:45 AM75.2 °F73.4 °F94 %29.77 in5.0 miESE (120°)19.6 mph26.5 mphOvercast
3:51 AM75.2 °F73.4 °F94 %29.77 in7.0 miSE (130°)19.6 mph25.3 mphOvercast
3:52 AM75.2 °F73.4 °F94 %29.77 in8.0 miESE (120°)18.4 mph25.3 mphOvercast
3:53 AM73.4 °F73.4 °F100 %29.77 in8.0 miESE (120°)18.4 mph25.3 mphOvercast
3:55 AM74.1 °F73.0 °F96 %29.78 in8.0 miSE (130°)17.3 mph25.3 mph0.03 inOvercast
4:13 AM73.4 °F73.4 °F100 %29.78 in10.0 miSE (130°)11.5 mphRainLight Rain
4:18 AM75.2 °F73.4 °F94 %29.78 in8.0 miSE (130°)11.5 mphRainLight Rain
4:30 AM75.2 °F73.4 °F94 %29.78 in2.5 miESE (110°)9.2 mphRainHeavy Rain
4:34 AM75.2 °F73.4 °F94 %29.78 in2.5 miESE (120°)15.0 mphRainRain
4:35 AM75.2 °F73.4 °F94 %29.78 in3.0 miESE (120°)13.8 mphRainRain
4:41 AM73.4 °F73.4 °F100 %29.78 in4.0 miESE (110°)11.5 mphOvercast
4:44 AM73.4 °F73.4 °F100 %29.78 in4.0 miESE (110°)10.4 mphOvercast
4:50 AM75.2 °F73.4 °F94 %29.78 in4.0 miESE (110°)13.8 mphOvercast
4:51 AM75.2 °F73.4 °F94 %29.78 in4.0 miESE (110°)11.5 mphOvercast
4:53 AM73.4 °F73.4 °F100 %29.79 in4.0 miESE (110°)11.5 mphRainLight Rain
4:55 AM74.3 °F73.0 °F96 %29.79 in3.0 miESE (110°)12.7 mph0.11 inRainLight Rain
4:56 AM75.2 °F73.4 °F94 %29.78 in3.0 miESE (110°)12.7 mphOvercast
4:57 AM75.2 °F73.4 °F94 %29.79 in3.0 miESE (110°)12.7 mphOvercast
4:59 AM75.2 °F73.4 °F94 %29.79 in3.0 miESE (110°)10.4 mphRainLight Rain
5:07 AM75.2 °F73.4 °F94 %29.79 in2.5 miEast (90°)18.4 mph24.2 mphRainRain
5:09 AM75.2 °F73.4 °F94 %29.79 in2.0 miEast (90°)16.1 mph24.2 mphRainRain
5:13 AM75.2 °F73.4 °F94 %29.79 in2.5 miEast (90°)18.4 mph25.3 mphRainLight Rain
5:17 AM73.4 °F73.4 °F100 %29.79 in3.0 miEast (100°)16.1 mph25.3 mphRainLight Rain
5:19 AM73.4 °F73.4 °F100 %29.79 in4.0 miEast (100°)17.3 mph25.3 mphRainLight Rain
5:34 AM75.2 °F73.4 °F94 %29.80 in5.0 miEast (80°)17.3 mph23.0 mphRainLight Rain
5:55 AM74.1 °F73.0 °F96 %29.81 in4.0 miENE (70°)18.4 mph28.8 mph0.17 inRainLight Rain
6:12 AM73.4 °F73.4 °F100 %29.81 in2.5 miEast (80°)23.0 mph28.8 mphRainRain
6:13 AM73.4 °F73.4 °F100 %29.81 in2.5 miEast (90°)21.9 mph28.8 mphRainRain
6:14 AM73.4 °F73.4 °F100 %29.81 in2.0 miEast (90°)21.9 mph28.8 mphRainHeavy Rain
6:16 AM73.4 °F73.4 °F100 %29.82 in1.8 miEast (80°)20.7 mph28.8 mphRainHeavy Rain
6:17 AM73.4 °F73.4 °F100 %29.82 in1.8 miEast (80°)21.9 mph28.8 mphRainHeavy Rain
6:20 AM73.4 °F73.4 °F100 %29.82 in1.5 miEast (90°)19.6 mph28.8 mphRainHeavy Rain
6:21 AM73.4 °F73.4 °F100 %29.82 in1.5 miEast (90°)17.3 mph28.8 mphRainHeavy Rain
6:22 AM73.4 °F73.4 °F100 %29.82 in1.5 miEast (80°)17.3 mphRainHeavy Rain
6:24 AM73.4 °F73.4 °F100 %29.82 in1.5 miEast (90°)17.3 mphRainHeavy Rain
6:27 AM73.4 °F73.4 °F100 %29.82 in2.0 miEast (90°)16.1 mphRainHeavy Rain
6:30 AM73.4 °F73.4 °F100 %29.82 in2.5 miEast (90°)12.7 mphRainRain
6:31 AM73.4 °F73.4 °F100 %29.82 in2.5 miEast (90°)12.7 mphRainRain
6:34 AM73.4 °F73.4 °F100 %29.82 in3.0 miEast (90°)13.8 mphRainLight Rain
6:45 AM75.2 °F73.4 °F94 %29.82 in2.5 miEast (80°)13.8 mphRainRain
6:47 AM75.2 °F73.4 °F94 %29.82 in2.0 miEast (80°)15.0 mphRainRain
6:48 AM75.2 °F73.4 °F94 %29.82 in1.8 miENE (70°)12.7 mphRainHeavy Rain
6:51 AM75.2 °F73.4 °F94 %29.82 in1.2 miENE (60°)17.3 mph23.0 mphRainHeavy Rain
6:53 AM75.2 °F73.4 °F94 %29.82 in1.0 miENE (60°)20.7 mph31.1 mphRainHeavy Rain
6:55 AM74.5 °F73.4 °F96 %29.83 in0.8 miEast (90°)24.2 mph40.3 mph0.43 inRainHeavy Rain
7:14 AM73.4 °F73.4 °F100 %29.84 in0.5 miEast (80°)23.0 mph29.9 mphFog-RainHeavy Rain
7:20 AM73.4 °F73.4 °F100 %29.84 in0.8 miEast (80°)23.0 mph29.9 mphRainLight Rain
7:24 AM75.2 °F73.4 °F94 %29.84 in1.0 miEast (90°)19.6 mph29.9 mphRainLight Rain
7:32 AM73.4 °F73.4 °F100 %29.85 in0.8 miEast (90°)25.3 mph29.9 mphRainRain
7:34 AM73.4 °F73.4 °F100 %29.85 in1.0 miEast (90°)25.3 mph32.2 mphRainRain
7:42 AM73.4 °F73.4 °F100 %29.86 in1.2 miEast (100°)20.7 mph32.2 mphRainRain
7:48 AM73.4 °F71.6 °F94 %29.86 in1.2 miEast (90°)20.7 mph29.9 mphRainRain
7:55 AM73.0 °F72.1 °F97 %29.86 in1.2 miEast (90°)20.7 mph27.6 mph0.43 inRainRain
8:06 AM73.4 °F71.6 °F94 %29.86 in1.2 miEast (100°)19.6 mph27.6 mphRainRain
8:15 AM73.4 °F71.6 °F94 %29.87 in1.5 miEast (100°)16.1 mphRainLight Rain
8:38 AM73.4 °F71.6 °F94 %29.87 in1.5 miESE (110°)17.3 mphRainRain
8:51 AM73.4 °F71.6 °F94 %29.88 in2.0 miESE (110°)16.1 mphRainLight Rain
8:55 AM72.9 °F72.0 °F97 %29.88 in2.0 miESE (120°)15.0 mph0.16 inRainLight Rain
8:56 AM73.4 °F71.6 °F94 %29.88 in2.5 miESE (120°)15.0 mphRainLight Rain
8:59 AM73.4 °F71.6 °F94 %29.88 in3.0 miESE (110°)17.3 mphRainLight Rain
9:04 AM73.4 °F71.6 °F94 %29.88 in4.0 miESE (110°)12.7 mphOvercast
9:09 AM73.4 °F71.6 °F94 %29.87 in6.0 miESE (110°)10.4 mphOvercast
9:22 AM73.4 °F71.6 °F94 %29.87 in10.0 miESE (110°)5.8 mphMostly Cloudy
9:24 AM71.6 °F71.6 °F100 %29.87 in10.0 miESE (110°)4.6 mphMostly Cloudy
10:55 AM80.8 °F73.6 °F79 %29.85 in10.0 miENE (70°)12.7 mph19.6 mphClear
11:55 AM82.9 °F74.5 °F75 %29.82 in10.0 miENE (60°)17.3 mphClear
12:55 PM79.2 °F74.3 °F85 %29.80 in9.0 miNE (40°)19.6 mphScattered Clouds
1:12 PM80.6 °F73.4 °F79 %29.79 in10.0 miENE (60°)19.6 mphMostly Cloudy
1:14 PM78.8 °F73.4 °F83 %29.80 in8.0 miENE (60°)20.7 mphMostly Cloudy
1:15 PM78.8 °F73.4 °F83 %29.80 in6.0 miENE (60°)19.6 mphRainLight Rain
1:19 PM78.8 °F75.2 °F89 %29.79 in4.0 miENE (60°)13.8 mph25.3 mphRainLight Rain
1:22 PM78.8 °F75.2 °F89 %29.79 in3.0 miNE (50°)16.1 mph25.3 mphRainLight Rain
1:30 PM78.8 °F75.2 °F89 %29.78 in9.0 miNE (40°)16.1 mph20.7 mphMostly Cloudy
1:55 PM81.5 °F74.8 °F80 %29.78 in10.0 miNE (50°)16.1 mph0.01 inScattered Clouds
2:55 PM82.6 °F73.8 °F75 %29.77 in10.0 miENE (70°)17.3 mph23.0 mphPartly Cloudy
3:09 PM82.4 °F73.4 °F74 %29.77 in10.0 miENE (60°)16.1 mphMostly Cloudy
3:16 PM82.4 °F73.4 °F74 %29.77 in10.0 miENE (60°)18.4 mph25.3 mphScattered Clouds
3:26 PM82.4 °F73.4 °F74 %29.76 in10.0 miENE (60°)16.1 mphMostly Cloudy
3:29 PM82.4 °F73.4 °F74 %29.77 in10.0 miENE (60°)17.3 mphScattered Clouds
3:55 PM81.9 °F73.2 °F75 %29.77 in10.0 miNE (50°)17.3 mphScattered Clouds
3:58 PM82.4 °F73.4 °F74 %29.77 in10.0 miNE (50°)19.6 mphMostly Cloudy
4:03 PM82.4 °F71.6 °F70 %29.77 in10.0 miENE (60°)18.4 mphScattered Clouds
4:26 PM80.6 °F73.4 °F79 %29.77 in10.0 miENE (60°)18.4 mph23.0 mphMostly Cloudy
4:55 PM80.2 °F73.0 °F79 %29.78 in10.0 miENE (60°)19.6 mphMostly Cloudy
4:58 PM80.6 °F73.4 °F79 %29.78 in10.0 miENE (60°)18.4 mphScattered Clouds
5:05 PM80.6 °F73.4 °F79 %29.78 in10.0 miENE (60°)17.3 mphMostly Cloudy
5:43 PM78.8 °F73.4 °F83 %29.79 in10.0 miENE (60°)18.4 mphScattered Clouds
5:55 PM79.5 °F73.2 °F81 %29.79 in10.0 miENE (60°)19.6 mphScattered Clouds
6:06 PM78.8 °F73.4 °F83 %29.79 in10.0 miENE (60°)17.3 mphMostly Cloudy
6:16 PM78.8 °F71.6 °F78 %29.80 in10.0 miENE (60°)17.3 mphScattered Clouds
6:55 PM78.8 °F73.4 °F83 %29.81 in10.0 miENE (60°)16.1 mphScattered Clouds
7:01 PM78.8 °F73.4 °F83 %29.81 in10.0 miENE (60°)19.6 mphMostly Cloudy
7:05 PM78.8 °F73.4 °F83 %29.81 in10.0 miNE (50°)18.4 mph24.2 mphScattered Clouds
7:06 PM78.8 °F73.4 °F83 %29.81 in10.0 miENE (60°)17.3 mph24.2 mphMostly Cloudy
7:11 PM78.8 °F73.4 °F83 %29.81 in10.0 miENE (60°)20.7 mphScattered Clouds
7:53 PM78.8 °F73.4 °F83 %29.81 in10.0 miENE (60°)19.6 mph26.5 mphDrizzle
7:55 PM78.4 °F72.7 °F82 %29.81 in10.0 miENE (60°)17.3 mph26.5 mph0.00 inDrizzle
8:02 PM77.0 °F73.4 °F89 %29.82 in10.0 miENE (60°)13.8 mphPartly Cloudy
8:26 PM78.8 °F73.4 °F83 %29.82 in10.0 miNE (50°)18.4 mphRainLight Rain
8:35 PM77.0 °F73.4 °F89 %29.82 in10.0 miENE (60°)17.3 mphPartly Cloudy
8:55 PM77.9 °F74.3 °F89 %29.82 in10.0 miENE (60°)17.3 mph0.00 inScattered Clouds
9:12 PM77.0 °F73.4 °F89 %29.82 in10.0 miENE (60°)19.6 mphMostly Cloudy
9:44 PM78.8 °F73.4 °F83 %29.82 in8.0 miNE (50°)19.6 mph24.2 mphLight Drizzle
9:52 PM77.0 °F73.4 °F89 %29.82 in9.0 miENE (60°)19.6 mphMostly Cloudy
9:55 PM77.5 °F72.7 °F85 %29.82 in10.0 miENE (60°)23.0 mph29.9 mph0.00 inMostly Cloudy
9:58 PM77.0 °F71.6 °F83 %29.82 in10.0 miENE (60°)21.9 mph29.9 mphScattered Clouds
10:29 PM78.8 °F73.4 °F83 %29.82 in10.0 miENE (60°)17.3 mph26.5 mphMostly Cloudy
10:36 PM77.0 °F71.6 °F83 %29.82 in10.0 miENE (60°)17.3 mph25.3 mphMostly Cloudy
10:45 PM77.0 °F73.4 °F89 %29.82 in10.0 miNE (50°)20.7 mphMostly Cloudy
10:55 PM78.1 °F72.5 °F83 %29.82 in10.0 miENE (60°)19.6 mph28.8 mphMostly Cloudy
11:00 PM78.8 °F73.4 °F83 %29.82 in10.0 miENE (60°)19.6 mph27.6 mphScattered Clouds
11:01 PM78.8 °F73.4 °F83 %29.82 in10.0 miNE (50°)20.7 mph27.6 mphMostly Cloudy
11:32 PM77.0 °F71.6 °F83 %29.81 in10.0 miENE (60°)18.4 mphRainLight Rain
11:38 PM77.0 °F73.4 °F89 %29.81 in10.0 miENE (60°)19.6 mphRainLight Rain
11:40 PM77.0 °F73.4 °F89 %29.81 in10.0 miENE (60°)18.4 mphMostly Cloudy
11:46 PM77.0 °F73.4 °F89 %29.81 in10.0 miENE (70°)16.1 mphMostly Cloudy
11:49 PM77.0 °F73.4 °F89 %29.81 in10.0 miENE (60°)17.3 mph24.2 mphMostly Cloudy
11:55 PM78.1 °F73.4 °F85 %29.81 in10.0 miENE (70°)17.3 mph24.2 mph0.00 inMostly Cloudy
11:59 PM78.8 °F73.4 °F83 %29.81 in10.0 miENE (60°)15.0 mphMostly Cloudy
Hourly data recorded from PGUA, located miles away from Mangilao, Guam







STORIES FROM OUR PARTNERS